Weather History for Albany, GA

Change the Weather History Date:

Monday, September 24, 2012

  Actual Average Record
Temperature  
Mean Temperature 70 °F 76 °F  
Max Temperature 84 °F 86 °F 97 °F (1961)
Min Temperature 56 °F 65 °F 47 °F (1982)
Degree Days  
Heating Degree Days 0 0  
Month to date heating degree days 0 0  
Since 1 July heating degree days 0 0  
Cooling Degree Days 5 11  
Month to date cooling degree days 306 327  
Year to date cooling degree days 2582 2300  
Growing Degree Days 20 (Base 50)    
Moisture  
Dew Point 48 °F    
Average Humidity 53    
Maximum Humidity 90    
Minimum Humidity 16    
Precipitation  
Precipitation 0.00 in - 1.23 in (2001)
Month to date precipitation 1.58  
Year to date precipitation 25.62  
Sea Level Pressure  
Sea Level Pressure 30.15 in    
Wind  
Wind Speed 3 mph (North)    
Max Wind Speed 15 mph    
Max Gust Speed 17 mph    
Visibility 10 miles    
Events      
T = Trace of Precipitation, MM = Missing Value Source: NWS Daily Summary

Daily Weather History Graph

Daily Weather History Graph

Search for Another Location

Airport:

Trip Planner

Search our weather history database for the weather conditions in past years. The results will help you decide how hot, cold, wet, or windy it might be!

Date:

Astronomy

Sep. 24, 2012 Rise Set
Actual Time 7:26 AM EDT 7:30 PM EDT
Civil Twilight 7:02 AM EDT 7:54 PM EDT
Nautical Twilight 6:34 AM EDT 8:22 PM EDT
Astronomical Twilight 6:05 AM EDT 8:51 PM EDT
Moon 3:59 PM EDT (9/24) 2:00 AM EDT (9/24)
Length of Visible Light 12h 52m
Length of Day
12h 03m
Waxing Gibbous, 70% of the Moon is Illuminated
Sep 24
Waxing Gibbous
Sep 29
Full
Oct 8
Last Quarter
Oct 15
New
Oct 21
First Quarter

Hourly Weather History & Observations

Time (EDT) Temp. Dew Point Humidity Pressure Visibility Wind Dir Wind Speed Gust Speed Precip Events Conditions
12:53 AM 62.1 °F 57.0 °F 84% 30.14 in 10.0 mi Calm Calm - N/A   Clear
1:53 AM 62.1 °F 57.0 °F 84% 30.14 in 10.0 mi Calm Calm - N/A   Clear
2:53 AM 61.0 °F 57.0 °F 87% 30.14 in 10.0 mi Calm Calm - N/A   Clear
3:53 AM 61.0 °F 55.0 °F 81% 30.13 in 10.0 mi Calm Calm - N/A   Clear
4:53 AM 62.1 °F 53.1 °F 72% 30.14 in 10.0 mi Calm Calm - N/A   Clear
5:53 AM 57.0 °F 53.1 °F 87% 30.15 in 10.0 mi North 3.5 mph - N/A   Clear
6:53 AM 59.0 °F 52.0 °F 78% 30.16 in 10.0 mi Calm Calm - N/A   Clear
7:53 AM 57.9 °F 51.1 °F 78% 30.17 in 10.0 mi Calm Calm - N/A   Clear
8:53 AM 63.0 °F 48.9 °F 60% 30.18 in 10.0 mi NNE 8.1 mph - N/A   Clear
9:53 AM 68.0 °F 46.0 °F 45% 30.19 in 10.0 mi NNE 4.6 mph - N/A   Clear
10:53 AM 73.0 °F 45.0 °F 37% 30.19 in 10.0 mi ENE 5.8 mph - N/A   Clear
11:53 AM 75.9 °F 43.0 °F 31% 30.19 in 10.0 mi North 5.8 mph - N/A   Clear
12:53 PM 78.1 °F 44.1 °F 30% 30.18 in 10.0 mi East 4.6 mph - N/A   Clear
1:53 PM 81.0 °F 35.1 °F 19% 30.16 in 10.0 mi NNW 9.2 mph - N/A   Clear
2:53 PM 81.0 °F 30.0 °F 16% 30.12 in 10.0 mi NW 8.1 mph 17.3 mph N/A   Clear
3:53 PM 82.9 °F 37.0 °F 19% 30.12 in 10.0 mi North 5.8 mph - N/A   Partly Cloudy
4:53 PM 82.9 °F 37.0 °F 19% 30.11 in 10.0 mi NNW 9.2 mph - N/A   Partly Cloudy
5:53 PM 81.0 °F 39.9 °F 23% 30.11 in 10.0 mi North 6.9 mph - N/A   Clear
6:53 PM 77.0 °F 45.0 °F 32% 30.10 in 10.0 mi Calm Calm - N/A   Clear
7:53 PM 66.9 °F 54.0 °F 63% 30.12 in 10.0 mi Calm Calm - N/A   Clear
8:53 PM 64.0 °F 51.1 °F 63% 30.13 in 10.0 mi NW 3.5 mph - N/A   Clear
9:53 PM 63.0 °F 53.1 °F 70% 30.14 in 10.0 mi Calm Calm - N/A   Clear
10:53 PM 61.0 °F 51.1 °F 70% 30.16 in 10.0 mi Calm Calm - N/A   Clear
11:53 PM 59.0 °F 51.1 °F 75% 30.16 in 10.0 mi Calm Calm - N/A   Clear